TimeCST,TemperatureF,Dew PointF,Humidity,Sea Level PressureIn,VisibilityMPH,Wind Direction,Wind SpeedMPH,Gust SpeedMPH,PrecipitationIn,Events,Conditions,WindDirDegrees,DateUTC
12:38 AM,64.4,64.4,100,29.77,10.0,WNW,8.1,-,N/A,,Overcast,300,2012-12-29 06:38:00
12:44 AM,64.4,64.4,100,29.78,10.0,WNW,9.2,-,N/A,,Overcast,290,2012-12-29 06:44:00
12:51 AM,64.4,64.4,100,29.78,10.0,West,8.1,-,N/A,,Overcast,280,2012-12-29 06:51:00
12:55 AM,64.8,64.8,100,29.78,10.0,WNW,6.9,-,N/A,,Overcast,290,2012-12-29 06:55:00
1:10 AM,64.4,64.4,100,29.80,10.0,West,11.5,-,N/A,,Overcast,280,2012-12-29 07:10:00
1:55 AM,63.3,63.3,100,29.81,10.0,NW,13.8,-,N/A,,Mostly Cloudy,310,2012-12-29 07:55:00
1:59 AM,62.6,62.6,100,29.82,10.0,NW,11.5,20.7,N/A,,Overcast,320,2012-12-29 07:59:00
2:30 AM,59.0,59.0,100,29.84,10.0,NW,13.8,21.9,N/A,,Overcast,320,2012-12-29 08:30:00
2:31 AM,59.0,59.0,100,29.84,10.0,NW,13.8,20.7,N/A,,Light Drizzle,320,2012-12-29 08:31:00
2:49 AM,57.2,57.2,100,29.86,10.0,NW,15.0,27.6,N/A,,Overcast,310,2012-12-29 08:49:00
2:55 AM,55.9,55.9,100,29.86,10.0,NW,16.1,26.5,0.00,,Overcast,310,2012-12-29 08:55:00
2:59 AM,55.4,55.4,100,29.87,10.0,NW,18.4,26.5,N/A,,Overcast,310,2012-12-29 08:59:00
3:09 AM,55.4,55.4,100,29.87,10.0,NW,21.9,28.8,N/A,,Light Drizzle,320,2012-12-29 09:09:00
3:20 AM,55.4,55.4,100,29.87,10.0,NW,12.7,20.7,N/A,,Overcast,320,2012-12-29 09:20:00
3:39 AM,53.6,53.6,100,29.88,10.0,NNW,15.0,20.7,N/A,Rain,Light Rain,330,2012-12-29 09:39:00
3:48 AM,53.6,53.6,100,29.89,10.0,NW,13.8,24.2,N/A,,Overcast,320,2012-12-29 09:48:00
3:55 AM,54.0,54.0,100,29.89,10.0,NW,12.7,20.7,0.00,,Overcast,320,2012-12-29 09:55:00
4:16 AM,53.6,53.6,100,29.91,10.0,NW,12.7,-,N/A,,Overcast,320,2012-12-29 10:16:00
4:55 AM,50.4,48.0,92,29.94,10.0,NW,12.7,20.7,N/A,,Overcast,320,2012-12-29 10:55:00
5:55 AM,48.9,46.4,91,29.99,10.0,NNW,13.8,20.7,N/A,,Overcast,340,2012-12-29 11:55:00
6:55 AM,47.7,45.1,91,30.03,10.0,NW,11.5,-,N/A,,Overcast,320,2012-12-29 12:55:00
7:55 AM,46.8,43.2,87,30.06,10.0,NW,17.3,23.0,N/A,,Overcast,320,2012-12-29 13:55:00
8:55 AM,46.4,42.3,85,30.10,10.0,NW,17.3,23.0,N/A,,Overcast,320,2012-12-29 14:55:00
9:55 AM,46.4,41.2,82,30.13,10.0,North,17.3,26.5,N/A,,Overcast,350,2012-12-29 15:55:00
10:55 AM,47.8,40.6,76,30.12,10.0,NNW,17.3,25.3,N/A,,Mostly Cloudy,340,2012-12-29 16:55:00
11:55 AM,46.8,40.3,78,30.13,10.0,NNW,18.4,24.2,N/A,,Overcast,330,2012-12-29 17:55:00
12:37 PM,48.2,41.0,76,30.11,10.0,NNW,16.1,24.2,N/A,,Scattered Clouds,330,2012-12-29 18:37:00
12:55 PM,47.8,39.6,73,30.12,10.0,NW,10.4,-,N/A,,Partly Cloudy,320,2012-12-29 18:55:00
1:55 PM,48.2,38.5,69,30.12,10.0,NW,13.8,-,N/A,,Clear,320,2012-12-29 19:55:00
2:55 PM,50.4,38.3,63,30.14,10.0,NNW,11.5,-,N/A,,Clear,330,2012-12-29 20:55:00
3:55 PM,48.9,37.6,65,30.17,10.0,NNW,9.2,-,N/A,,Clear,330,2012-12-29 21:55:00
4:55 PM,46.8,36.5,67,30.19,10.0,NNW,10.4,20.7,N/A,,Clear,330,2012-12-29 22:55:00
5:55 PM,44.2,35.2,71,30.22,10.0,NNW,8.1,-,N/A,,Clear,340,2012-12-29 23:55:00
6:55 PM,41.9,34.5,75,30.25,10.0,NNW,9.2,-,N/A,,Clear,340,2012-12-30 00:55:00
7:55 PM,40.1,33.8,78,30.29,10.0,NNW,4.6,-,N/A,,Clear,330,2012-12-30 01:55:00
8:55 PM,39.0,33.1,79,30.32,10.0,NNW,6.9,-,N/A,,Clear,340,2012-12-30 02:55:00
9:55 PM,38.5,32.0,78,30.34,10.0,NW,5.8,-,N/A,,Clear,320,2012-12-30 03:55:00
10:55 PM,37.2,30.9,78,30.35,10.0,NNW,8.1,-,N/A,,Clear,330,2012-12-30 04:55:00
11:55 PM,36.5,30.4,78,30.35,10.0,NNW,6.9,-,N/A,,Clear,330,2012-12-30 05:55:00